FW1369 Weather Reports


time (UTC)temp
C
wind
direction
speed
KPH
gust
KPH
rain 1hr
cm
rain 24hr
cm
rain mn
cm
humidity
%
barometer
mb
20260505004504 17 298 0.0 0.0 0.00 0.00 0.00 51 1001.5
20260505004005 17 298 0.0 1.6 0.00 0.00 0.00 50 1001.5
20260505003506 17 298 0.0 1.6 0.00 0.00 0.00 49 1001.5
20260505003003 18 298 0.0 1.6 0.00 0.00 0.00 49 1001.5
20260505002503 18 298 0.0 1.6 0.00 0.00 0.00 48 1001.5
20260505002003 18 298 0.0 0.0 0.00 0.00 0.00 48 1001.5
20260505001503 18 298 0.0 0.0 0.00 0.00 0.00 47 1001.5
20260505001004 19 298 0.0 0.0 0.00 0.00 0.00 45 1001.5
20260505000501 19 298 0.0 0.0 0.00 0.00 0.00 44 1001.4
20260505000006 20 298 0.0 0.0 0.00 0.00 0.00 43 1001.4
20260504235505 20 298 0.0 0.0 0.00 0.00 0.00 42 1001.4
20260504235001 20 298 0.0 0.0 0.00 0.00 0.00 41 1001.4
20260504234501 20 298 0.0 0.0 0.00 0.00 0.00 41 1001.3
20260504234002 21 298 0.0 0.0 0.00 0.00 0.00 39 1001.3
20260504233504 21 298 0.0 0.0 0.00 0.00 0.00 38 1001.3
20260504233002 21 298 0.0 1.6 0.00 0.00 0.00 37 1001.3
20260504232501 21 298 0.0 1.6 0.00 0.00 0.00 36 1001.3
20260504232001 21 298 0.0 3.2 0.00 0.00 0.00 36 1001.3
20260504231609 21 298 0.0 3.2 0.00 0.00 0.00 36 1001.3
20260504231502 21 298 0.0 3.2 0.00 0.00 0.00 36 1001.3
20260504231100 22 298 0.0 4.8 0.00 0.00 0.00 35 1001.3
20260504230559 22 298 0.0 11.3 0.00 0.00 0.00 35 1001.3
20260504230100 22 298 0.0 11.3 0.00 0.00 0.00 34 1001.2
20260504225600 22 304 0.0 4.8 0.00 0.00 0.00 35 1001.2
20260504225100 22 304 0.0 4.8 0.00 0.00 0.00 34 1001.1
20260504224609 22 304 0.0 8.0 0.00 0.00 0.00 35 1001.1
20260504224059 23 304 1.6 8.0 0.00 0.00 0.00 34 1001.1
20260504223559 23 330 1.6 8.0 0.00 0.00 0.00 33 1001.2
20260504223134 23 349 0.0 9.7 0.00 0.00 0.00 33 1001.2
20260504222558 23 309 0.0 12.9 0.00 0.00 0.00 34 1001.2
20260504222058 23 309 3.2 14.5 0.00 0.00 0.00 33 1001.3
20260504221557 23 294 0.0 14.5 0.00 0.00 0.00 34 1001.2
20260504221100 23 269 3.2 14.5 0.00 0.00 0.00 33 1001.3
20260504220556 23 300 1.6 8.0 0.00 0.00 0.00 34 1001.2
20260504220056 23 185 1.6 11.3 0.00 0.00 0.00 33 1001.3
20260504215556 23 290 1.6 12.9 0.00 0.00 0.00 34 1001.3
20260504215054 23 282 3.2 14.5 0.00 0.00 0.00 32 1001.4
20260504214555 23 255 3.2 14.5 0.00 0.00 0.00 33 1001.5
20260504214054 23 311 1.6 11.3 0.00 0.00 0.00 35 1001.5
20260504213554 23 270 3.2 19.3 0.00 0.00 0.00 33 1001.6
20260504213103 23 279 4.8 19.3 0.00 0.00 0.00 34 1001.6
20260504212554 23 309 6.4 17.7 0.00 0.00 0.00 33 1001.6
20260504212053 23 306 3.2 17.7 0.00 0.00 0.00 35 1001.6
20260504211552 23 268 3.2 17.7 0.00 0.00 0.00 34 1001.7
20260504211052 23 306 4.8 17.7 0.00 0.00 0.00 35 1001.7
20260504210551 23 294 4.8 17.7 0.00 0.00 0.00 38 1001.7
20260504210057 23 276 3.2 17.7 0.00 0.00 0.00 35 1001.7
20260504205552 23 295 1.6 16.1 0.00 0.00 0.00 36 1001.8
20260504205050 23 309 3.2 16.1 0.00 0.00 0.00 36 1001.7
20260504204550 23 295 1.6 9.7 0.00 0.00 0.00 36 1001.8
20260504204049 23 271 3.2 14.5 0.00 0.00 0.00 37 1001.9
20260504203548 23 247 1.6 14.5 0.00 0.00 0.00 36 1001.9
20260504203104 23 196 3.2 14.5 0.00 0.00 0.00 37 1002.1
20260504202546 23 290 3.2 19.3 0.00 0.00 0.00 37 1002.1
20260504202048 23 294 4.8 19.3 0.00 0.00 0.00 36 1002.2
20260504201549 23 272 4.8 19.3 0.00 0.00 0.00 39 1002.3
20260504201044 23 286 4.8 20.9 0.00 0.00 0.00 38 1002.3
20260504200543 22 273 3.2 20.9 0.00 0.00 0.00 38 1002.4
20260504200043 23 263 4.8 20.9 0.00 0.00 0.00 37 1002.4
20260504195542 22 140 1.6 14.5 0.00 0.00 0.00 39 1002.5
20260504195041 22 300 1.6 24.1 0.00 0.00 0.00 38 1002.5
20260504194541 22 291 6.4 24.1 0.00 0.00 0.00 41 1002.6
20260504194043 22 252 3.2 17.7 0.00 0.00 0.00 38 1002.8
20260504193542 22 284 3.2 25.7 0.00 0.00 0.00 41 1002.8
20260504193039 22 298 3.2 25.7 0.00 0.00 0.00 40 1002.8
20260504192539 22 325 4.8 17.7 0.00 0.00 0.00 41 1002.9
20260504192038 22 297 4.8 16.1 0.00 0.00 0.00 41 1003.0
20260504191537 22 281 3.2 17.7 0.00 0.00 0.00 40 1002.9
20260504191038 22 116 4.8 17.7 0.00 0.00 0.00 41 1003.1
20260504190537 22 145 4.8 17.7 0.00 0.00 0.00 42 1003.0
20260504190039 22 344 3.2 22.5 0.00 0.00 0.00 43 1003.1
20260504185535 22 243 4.8 22.5 0.00 0.00 0.00 41 1003.3
20260504185036 22 305 6.4 24.1 0.00 0.00 0.00 40 1003.4
20260504184534 23 205 4.8 24.1 0.00 0.00 0.00 41 1003.3
20260504184034 23 290 3.2 16.1 0.00 0.00 0.00 44 1003.4
20260504183533 22 278 4.8 16.1 0.00 0.00 0.00 44 1003.5
20260504183032 22 327 1.6 19.3 0.00 0.00 0.00 42 1003.5
20260504182532 22 281 6.4 19.3 0.00 0.00 0.00 45 1003.7
20260504182031 22 321 3.2 20.9 0.00 0.00 0.00 46 1003.6
20260504181536 22 360 8.0 19.3 0.00 0.00 0.00 43 1003.6
20260504181033 22 205 6.4 14.5 0.00 0.00 0.00 46 1003.7
20260504180531 22 292 4.8 17.7 0.00 0.00 0.00 47 1003.8
20260504180028 22 224 6.4 20.9 0.00 0.00 0.00 45 1003.7
20260504175527 21 223 3.2 20.9 0.00 0.00 0.00 47 1003.8
20260504175026 22 313 8.0 20.9 0.00 0.00 0.00 45 1003.9
20260504174525 21 253 4.8 17.7 0.00 0.00 0.00 46 1004.0
20260504174024 21 309 4.8 22.5 0.00 0.00 0.00 47 1003.9
20260504173524 21 166 4.8 22.5 0.00 0.00 0.00 48 1004.0
20260504173021 21 328 4.8 27.4 0.00 0.00 0.00 48 1004.0
20260504172520 21 314 3.2 27.4 0.00 0.00 0.00 46 1004.1
20260504172020 21 249 8.0 25.7 0.00 0.00 0.00 48 1004.0
20260504171520 21 302 4.8 25.7 0.00 0.00 0.00 47 1004.1
20260504171020 21 254 3.2 20.9 0.00 0.00 0.00 46 1004.1
20260504170519 21 268 4.8 20.9 0.00 0.00 0.00 48 1004.1
20260504151100 17 287 1.6 19.3 0.00 0.00 0.00 53 1005.2
20260504150559 17 288 6.4 22.5 0.00 0.00 0.00 52 1005.3
20260504150113 17 317 3.2 22.5 0.00 0.00 0.00 50 1005.3
20260504141052 16 355 4.8 17.7 0.00 0.00 0.00 51 1005.4
20260504140551 16 299 4.8 17.7 0.00 0.00 0.00 51 1005.5
20260504130540 14 312 3.2 30.6 0.00 0.00 0.00 56 1005.9
20260504110524 10 289 0.0 9.7 0.00 0.00 0.00 60 1006.1
20260504100522 10 256 1.6 11.3 0.00 0.00 0.00 59 1005.9
20260504081511 10 313 1.6 8.0 0.00 0.00 0.00 58 1006.7
20260504081011 10 300 1.6 8.0 0.00 0.00 0.00 58 1006.7
20260504080510 10 309 0.0 12.9 0.00 0.00 0.00 59 1006.7
20260504050547 10 297 0.0 3.2 0.00 0.00 0.00 56 1007.8
20260504045547 10 319 0.0 0.0 0.00 0.00 0.00 56 1007.9
20260504045043 11 319 0.0 0.0 0.00 0.00 0.00 56 1007.9
20260504044546 11 319 0.0 3.2 0.00 0.00 0.00 56 1007.9
20260504044041 11 319 0.0 4.8 0.00 0.00 0.00 56 1008.0
20260504043543 11 319 0.0 4.8 0.00 0.00 0.00 56 1008.0
20260504043041 11 318 0.0 3.2 0.00 0.00 0.00 56 1008.0
20260504042540 11 317 0.0 4.8 0.00 0.00 0.00 56 1008.0
20260504042039 11 317 0.0 11.3 0.00 0.00 0.00 56 1008.0
20260504041539 11 316 1.6 11.3 0.00 0.00 0.00 56 1008.0
20260504041041 11 294 1.6 12.9 0.00 0.00 0.00 56 1008.0
20260504040538 11 284 1.6 12.9 0.00 0.00 0.00 56 1008.0
20260504040044 11 186 3.2 16.1 0.00 0.00 0.00 55 1008.0
20260504035538 11 292 3.2 16.1 0.00 0.00 0.00 55 1007.9
20260504035037 11 299 3.2 12.9 0.00 0.00 0.00 55 1007.9
20260504034548 11 290 1.6 9.7 0.00 0.00 0.00 55 1007.8
20260504034040 11 299 0.0 9.7 0.00 0.00 0.00 56 1007.8
20260504033539 12 300 1.6 11.3 0.00 0.00 0.00 55 1007.9
20260504033037 12 276 1.6 8.0 0.00 0.00 0.00 55 1008.0
20260504032537 12 311 0.0 4.8 0.00 0.00 0.00 54 1007.9
20260504032040 12 311 0.0 8.0 0.00 0.00 0.00 54 1007.9
20260504031536 12 317 1.6 8.0 0.00 0.00 0.00 54 1007.9
20260504031035 12 332 1.6 14.5 0.00 0.00 0.00 54 1007.9
20260504030534 12 275 1.6 19.3 0.00 0.00 0.00 53 1007.9
20260504030034 12 315 3.2 19.3 0.00 0.00 0.00 53 1007.9
20260504025534 12 316 4.8 17.7 0.00 0.00 0.00 53 1007.9
20260504025034 12 307 3.2 17.7 0.00 0.00 0.00 54 1007.9
20260504024534 12 292 4.8 19.3 0.00 0.00 0.00 54 1008.0
20260504024034 12 307 4.8 19.3 0.00 0.00 0.00 54 1008.0
20260504023535 12 315 3.2 20.9 0.00 0.00 0.00 54 1008.0
20260504023033 12 306 8.0 20.9 0.00 0.00 0.00 54 1008.0
20260504022533 12 292 4.8 17.7 0.00 0.00 0.00 54 1008.1
20260504022035 12 25 4.8 19.3 0.00 0.00 0.00 54 1008.2
20260504021532 12 72 4.8 19.3 0.00 0.00 0.00 54 1008.3
20260504021032 12 275 3.2 17.7 0.00 0.00 0.00 54 1008.4
20260504020531 12 296 1.6 16.1 0.00 0.00 0.00 54 1008.4
20260504020031 12 296 3.2 16.1 0.00 0.00 0.00 54 1008.3
20260504015531 12 305 3.2 16.1 0.00 0.00 0.00 54 1008.3
20260504015031 12 305 1.6 16.1 0.00 0.00 0.00 54 1008.2
20260504014530 12 313 1.6 19.3 0.00 0.00 0.00 54 1008.2
20260504014030 12 261 1.6 19.3 0.00 0.00 0.00 54 1008.2
20260504013531 12 292 1.6 17.7 0.00 0.00 0.00 54 1008.4
20260504013040 12 286 6.4 20.9 0.00 0.00 0.00 54 1008.4
20260504012533 11 156 4.8 20.9 0.00 0.00 0.00 54 1008.4
20260504012030 11 298 3.2 17.7 0.00 0.00 0.00 55 1008.5
20260504011531 11 319 8.0 17.7 0.00 0.00 0.00 54 1008.6
20260504011030 12 323 3.2 14.5 0.00 0.00 0.00 55 1008.6
20260504010529 12 322 3.2 19.3 0.00 0.00 0.00 55 1008.6
20260504010029 12 290 3.2 19.3 0.00 0.00 0.00 55 1008.6
20260504005529 12 284 3.2 20.9 0.00 0.00 0.00 54 1008.6
20260504005029 12 294 6.4 22.5 0.00 0.00 0.00 54 1008.6